Flag for Japan Weather past 2 weeks in Utsunomiya, Japan

Now
76 °F

Mild.


Feels Like: 76 °F
Forecast: 72 / 86 °F
Wind: 2 mph from South

Location: Mito

Current Time: Jul 24, 2014 at 10:56:24 PM

Latest Report: Jul 24, 2014 at 10:00 PM


Visibility: N/A

Pressure: 29.78 "Hg

Humidity: 92%

Dew point: 73 °F

Location of UtsunomiyaLocation

Historic Weather in Utsunomiya — Graph

°F

Utsunomiya temperature yesterday

Maximum temperature yesterday: 87 °F (at 1:00 PM)
Minimum temperature yesterday: 75 °F (at 12:00 AM)
Average temperature yesterday: 81 °F

Past Weeks' High & Low Weather Summary

 TemperatureHumidityPressure
High92 °F (Jul 11, 3:00 PM)98% (Jul 10, 6:00 AM)29.99 "Hg (Jul 10, 6:00 AM)
Low67 °F (Jul 22, 2:00 AM)49% (Jul 12, 4:00 PM)29.23 "Hg (Jul 11, 6:00 AM)
Average76 °F83%29.77 "Hg
* Reported Jul 9 11:00 PM — Jul 24 9:00 PM, Utsunomiya, Weather by CustomWeather, © 2014

Note: Actual official high and low records may vary slightly from our data, if they occured in-between our weather recording intervals... More about our weather records

Advertising

Utsunomiya weather history for previous 24 hours

 ConditionsComfort  
Time TempWeatherWind HumidityBarometerVisibility
9:00 PM
Jul 24
76 °FThundershowers. Overcast.3 mph89%29.79 "Hg5 mi
8:00 PM78 °FWarm.3 mph79%29.76 "HgN/A
7:00 PM78 °FWarm.6 mph77%29.72 "HgN/A
6:00 PM80 °FWarm.7 mph72%29.71 "HgN/A
5:00 PM82 °FWarm.9 mph69%29.70 "HgN/A
4:00 PM82 °FWarm.8 mph66%29.69 "HgN/A
3:00 PM82 °FOvercast.9 mph69%29.68 "Hg6 mi
2:00 PM86 °FWarm.8 mph62%29.66 "HgN/A
1:00 PM88 °FHot.7 mph62%29.64 "HgN/A
12:00 PM89 °FHot.5 mph62%29.64 "HgN/A
11:00 AM88 °FWarm.5 mph66%29.64 "HgN/A
10:00 AM85 °FWarm.2 mph72%29.65 "HgN/A
9:00 AM83 °FFog.3 mph75%29.64 "Hg5 mi
8:00 AM81 °FWarm.5 mph81%29.64 "HgN/A
7:00 AM80 °FWarm.2 mph79%29.62 "HgN/A
6:00 AM77 °FMild.3 mph91%29.62 "HgN/A
5:00 AM76 °FMild.1 mph92%29.61 "HgN/A
4:00 AM77 °FWarm.2 mph90%29.61 "HgN/A
3:00 AM78 °FFog.2 mph85%29.61 "Hg5 mi
2:00 AM77 °FMild.2 mph91%29.61 "HgN/A
1:00 AM76 °FMild.2 mph92%29.62 "HgN/A
12:00 AM76 °FMild.2 mph90%29.63 "HgN/A
11:00 PM
Jul 23
76 °FMild.2 mph93%29.64 "HgN/A
10:00 PM76 °FMild.2 mph92%29.66 "HgN/A
Weather by CustomWeather, © 2014

See weather overviewHow to use our weather pages